Starlink 31502

operational
NORAD ID: 59301 Int'l Des: 2024-056 Owner: SPXS Country: US Constellation: starlink
LEOCIRCULAR

关于 Starlink 31502

正在加载描述...

实时位置

正在加载3D地球...

即将过境

高度历史

Altitude vs Time

uPlot chart will show altitude changes over time

两行轨道根数

1 59301U 24056F 25258.94864701 .00000076 00000-0 12266-4 0 9990
2 59301 43.0029 130.3033 0001110 274.4165 85.6560 15.27603063 84514
Epoch: Sep 15, 2025 • Age: 21 hours

当前状态

高度 483.4 km
速度 7.63 km/s
星下点 24.79°N, 16.97°W
发射日期 Mar 24, 2024
运行时间 1.4 years
类型 internet

技术详情

分类 Payload
质量 730.00 kg
干质量 700.00 kg
总质量 730.00 kg
长度 0.30 m
直径 4.10 m
跨度 29.00 m
形状 Box + pan
制造商 SPXS
平台类型 Starlink V2M
阶段状态 In Orbit
所有者/国家 SPXS/US

大型星座

Loading constellations...